Regional Weather Roundup
Issued by NWS

Home | Current Version | Previous Version | Graphics & Text | Print | Product List | Glossary On
Versions: 1 2 3 4 5 6 7 8 9 10 11 12 13 14 15 16 17 18 19 20 21 22 23 24 25 26 27 28 29 30 31 32 33 34 35 36 37 38 39 40 41 42 43 44 45 46 47 48 49 50
000
ASUS43 KDMX 291907
RWRIA

WEATHER ROUNDUP FOR IOWA
NATIONAL WEATHER SERVICE DES MOINES IA
200 PM CDT SUN MAR 29 2015

NOTE: "FAIR" INDICATES FEW OR NO CLOUDS BELOW 12,000 FEET WITH NO
SIGNIFICANT WEATHER AND/OR OBSTRUCTIONS TO VISIBILITY.

* - THESE STATIONS ARE NOT NWS STATIONS...THUS NOT UNDER NWS
QUALITY CONTROL.  THEY ALSO DO NOT REPORT WEATHER SUCH
AS PRECIPITATION OR FOG.

IAZ001>003-012>014-020>022-031>034-043>046-292000-
   NORTHWEST IOWA

CITY           SKY/WX    TMP DP  RH WIND       PRES   REMARKS
CARROLL *      CLOUDY    52  39  62 NW24G35   29.95R
CHEROKEE *     PTSUNNY   55  36  47 NW23G37   29.95R
DENISON *      CLOUDY    50  39  66 NW25G37   29.97R
LE MARS *      MOSUNNY   57  36  44 NW24G31   29.99R
ORANGE CITY *  SUNNY     57  30  35 NW22G36   29.96R
SHELDON *      SUNNY     55  32  41 NW30G44   29.91S
SIOUX CITY     MOSUNNY   57  35  43 NW24G39   29.98F
SPENCER        MOSUNNY   57  33  40 NW24G39   29.90R
STORM LAKE *   PTSUNNY   54  37  54 NW29G40   29.94R
$$

IAZ055>058-069>071-079>083-090>094-292000-
   SOUTHWEST IOWA

CITY           SKY/WX    TMP DP  RH WIND       PRES   REMARKS
ATLANTIC *     CLOUDY    52  39  62 NW28G33   29.99R
AUDUBON *      SUNNY     52  39  62 NW17G29   29.98R
CLARINDA *     MOSUNNY   61  41  48 NW28G45   30.00R
COUNCIL BLFS * CLOUDY    52  39  62 NW24G37   30.02R
CRESTON *      PTSUNNY   59  41  51 NW35G43   29.93R
HARLAN  *      CLOUDY    50  39  66 NW29G39   30.03R
LAMONI         CLOUDY    61  39  44 NW26G33   29.92S
RED OAK *      MOSUNNY   57  41  54 NW28G43   30.00R
SHENANDOAH *   PTSUNNY   61  41  48 NW22G39   30.01R
$$

IAZ047>049-059>061-072>074-084-292000-
   CENTRAL IOWA

CITY           SKY/WX    TMP DP  RH WIND       PRES   REMARKS
AMES           CLOUDY    56  40  55 NW29G44   29.87R
ANKENY *       PTSUNNY   59  41  51 NW30G38   29.87R
CHARITON *     CLOUDY    57  39  51 W29G35    29.89S
DES MOINES     PTSUNNY   61  40  45 NW36G47   29.87R
GRINNELL*      CLOUDY    57  39  51 W25G36    29.82S
KNOXVILLE *    CLOUDY    57  39  51 W20G28    29.86R
MARSHALLTOWN   CLOUDY    57  41  55 W35G41    29.80R
PELLA *        PTSUNNY   57  43  58 W18G28    29.87R
PERRY *        CLOUDY    52  41  66 NW24G37   29.92R
$$

IAZ004>006-015-016-023>025-035-036-292000-
   NORTH CENTRAL IOWA

CITY           SKY/WX    TMP DP  RH WIND       PRES   REMARKS
ALGONA *       PTSUNNY   54  37  54 NW33G41   29.86R
CLARION *      CLOUDY    52  43  71 NW29G43   29.85R
ESTHERVILLE    SUNNY     54  36  50 NW33G43   29.86S
FORT DODGE *   PTSUNNY   55  37  50 NW16G32   29.89R
MASON CITY     CLOUDY    49  38  65 NW31G39   29.81R
FOREST CITY *  CLOUDY    50  37  62 NW33G40   29.81R
IOWA FALLS *   CLOUDY    54  41  62 NW33G39   29.84R
$$

IAZ007>011-017>019-026>030-037>042-050>054-066-292000-
   NORTHEAST IOWA

CITY           SKY/WX    TMP DP  RH WIND       PRES   REMARKS
CEDAR RAPIDS   PTSUNNY   55  42  61 W23G31    29.78F
CHARLES CITY * CLOUDY    52  43  71 NW32G39   29.76R
CLINTON *      MOSUNNY   46  37  71 SW24G30   29.84F
DECORAH *      CLOUDY    48  41  76 W16G23    29.69R
DUBUQUE        PTSUNNY   46  41  82 SW20G25   29.74F
MONTICELLO *   PTSUNNY   54  45  71 SW18G29   29.75F
OELWEIN *      CLOUDY    55  43  62 W28G35    29.74R
WATERLOO       CLOUDY    56  40  55 W25G36    29.76R
$$

IAZ064-065-067-068-078-292000-
   EAST CENTRAL IOWA

CITY           SKY/WX    TMP DP  RH WIND       PRES   REMARKS
DAVENPORT      MOSUNNY   50  38  63 SW22G29   29.83F
IOWA CITY      MOSUNNY   59  42  53 W22G30    29.82F
MT. PLEASANT * PTSUNNY   52  41  66 SW18G28   29.87F
MUSCATINE *    MOSUNNY   55  41  58 W17G25    29.84F
QUAD CITIES    MOSUNNY   49  36  61 SW21G29   29.84F
$$

IAZ062-063-075>077-085>089-095>099-292000-
   SOUTHEAST IOWA

CITY           SKY/WX    TMP DP  RH WIND       PRES   REMARKS
BURLINGTON     PTSUNNY   52  40  63 SW20G28   29.87F
FAIRFIELD *    MOSUNNY   57  41  54 SW16G25   29.86F
FORT MADISON * SUNNY     54  39  58 SW14G24   29.89S
KEOKUK *       SUNNY     54  39  58 SW22      29.89F
OSKALOOSA *    CLOUDY    57  43  58 W24G30    29.86S
CENTERVILLE *  SUNNY     57  41  54 W16G25    29.91F
OTTUMWA        PTSUNNY   57  40  52 W18G29    29.86F
WASHINGTON *   MOSUNNY   57  45  62 W21G30    29.85S
$$

ABBREVIATIONS USED IN REMARKS
   TC - TEMPERATURES IN CELSIUS
  WCI - WIND CHILL INDEX
   HX - HEAT INDEX
  VSB - VISIBILITY
$$



USA.gov is the U.S. government's official web portal to all federal, state and local government web resources and services.